[[{"header":{"parameterUnit":"m.s-1","parameterCategory":1,"la1":30.2991,"la2":30.254,"lo1":-89.0895,"lo2":-89.0444,"dy":0.0017,"dx":0.0017,"nx":28,"ny":28,"refTime":"2025-06-03T21:00:00:Z","depth":0,"parameterNumber":2,"parameterNumberName":"U-component_of_WINDS"},"data":[0,0,0,0,0,0,0,0,0,0,0,0,0,0,0,0,0,0,0,0,0,0,0,0,0,0,0,0,0,0,0,0,0,0,0,0,0,0,0,0,0,0,0,0,0,0,0,0,0,0,0,0,0,0,0,0,0,0,0.0008,0.0009,0,0.012,0.0122,0.0123,0.0185,0.0185,0.0185,0.0185,0.0305,0.0308,0.0311,0,0,0,0,0,0,0,0,0,0,0,0,0,-0.0152,-0.0149,0.0007,0.0009,0.001,0.012,0.0122,0.0123,0.0185,0.0185,0.0185,0.0185,0.0304,0.0307,0.0311,0,0,0,0,0,0,0,0,0,0,0,0,0,-0.0065,-0.0149,0.0007,0.0054,0.0059,0.012,0.0122,0.0124,0.0185,0.0185,0.0185,0.0185,0.0302,0.0307,0.0311,0.0335,0,0,0.0325,0.0327,0,0,0,0,0,0,0,0,-0.007,-0.006,0.0046,0.0051,0.0057,0.0139,0.0109,0.0195,0.0185,0.0137,0.0185,0.0185,0.025,0.0258,0.0279,0.0341,0.0346,0.0326,0.0329,0.0331,0.0332,0,0,0,0,0,0,0,-0.0076,-0.0064,0.0052,0.0047,0.0054,0.007,0.0083,0.0126,0.0191,0.0141,0.0146,0.0158,0.0253,0.0275,0.0283,0.0348,0.0326,0.033,0.0333,0.0334,0.0434,0.0434,0,0,0,0,0,0,-0.009,-0.0069,0.0049,0.0056,-0.0008,0.0073,0.0087,0.0112,0.0191,0.0203,0.0158,0.0161,0.0267,0.0277,0.0287,0.032,0.0331,0.0335,0.0337,0.0434,0.0434,0.0434,0,0,0,0,0,0,-0.0094,-0.008,0.0044,-0.0006,0.0011,0.0076,0.0103,0.0114,0.0136,0.0203,0.0215,0.0168,0.0267,0.0281,0.0322,0.0325,0.0337,0.0341,0.0434,0.0434,0.0434,0.0385,0,0,0,0,0,0,-0.0099,-0.0082,-0.0073,-0.0006,0.0014,0.0077,0.0103,0.0116,0.0144,0.0148,0.0216,0.0228,0.0269,0.0315,0.0327,0.0331,0.0345,0.0434,0.0434,0.0434,0.0387,0.0384,0.0381,0,0,0,0,0,-0.0105,-0.009,-0.0073,-0.0059,0.0026,0.0077,0.0088,0.0134,0.0144,0.0154,0.0196,0.0226,0.0322,0.0319,0.0333,0.0338,0.0434,0.0434,0.0434,0.0389,0.0384,0.0381,0,0,0,0,0,0,-0.0157,-0.0081,-0.006,-0.0024,0.0019,0.0087,0.0101,0.0128,0.017,0.0173,0.0229,0.0244,0.028,0.0314,0.0309,0.0365,0.0381,0.0384,0.0342,0.0339,0.0335,0.0327,0.0348,0,0,0,0,0,-0.0165,-0.0132,-0.0066,-0.004,-0.002,0.0037,0.006,0.0091,0.0139,0.0158,0.0204,0.025,0.0291,0.0317,0.0358,0.0392,0.0408,0.0403,0.0399,0.0396,0.0398,0.0418,0.0417,0.0433,0.0433,0.0433,0,0,-0.018,-0.0134,-0.0116,-0.0049,-0.0012,0.0022,0.0052,0.0087,0.0113,0.0164,0.0206,0.0241,0.0296,0.0333,0.0353,0.0363,0.0397,0.0396,0.0393,0.0397,0.0418,0.0416,0.0415,0.0433,0.0433,0.0433,0,0,-0.0189,-0.0151,-0.0126,-0.009,-0.0035,0.0003,0.0008,0.0072,0.0097,0.0139,0.0178,0.021,0.0279,0.0317,0.0345,0.0348,0.0376,0.036,0.0343,0.0362,0.0361,0.036,0.0361,0.0361,0.0361,0.0361,0.0361,0,-0.0214,-0.0162,-0.0116,-0.0083,-0.0055,-0.0009,0.0017,0.005,0.0117,0.0135,0.0145,0.0232,0.0272,0.0319,0.032,0.0341,0.035,0.0353,0.0357,0.0357,0.0357,0.0358,0.0359,0.0359,0.0359,0.0359,0.0359,0,-0.0196,-0.0161,-0.0146,-0.0085,-0.0056,-0.0026,0.0025,0.005,0.0078,0.0114,0.0157,0.0207,0.0258,0.0272,0.0301,0.0323,0.0327,0.0346,0.0364,0.0352,0.0354,0.0356,0.0355,0.0356,0.0357,0.0357,0,0,-0.0234,-0.0149,-0.0144,-0.0116,-0.0053,-0.0024,0.0007,0.0056,0.0076,0.012,0.0148,0.0205,0.0223,0.0254,0.0288,0.0304,0.0303,0.0321,0.0324,0.0316,0.0331,0.0316,0.0316,0.0322,0.0322,0.0322,0.0326,0,-0.0234,-0.0177,-0.0135,-0.0093,-0.006,-0.0017,0.0011,0.0053,0.0087,0.0121,0.016,0.0199,0.0219,0.0239,0.0257,0.0299,0.0307,0.0299,0.0349,0.035,0.0334,0.0317,0.0302,0.0303,0.0327,0.0327,0.0328,0,-0.0227,-0.0186,-0.0142,-0.0083,-0.0067,-0.0043,0.0005,0.0036,0.0085,0.0109,0.0143,0.0177,0.0213,0.0226,0.0276,0.027,0.0293,0.0317,0.0318,0.0325,0.0339,0.0324,0.0305,0.0305,0.033,0.0329,0.0329,0,-0.0259,-0.0193,-0.0158,-0.0136,-0.0066,-0.005,-0.002,0.0029,0.0055,0.0098,0.0116,0.0162,0.0187,0.0223,0.0268,0.0274,0.0314,0.0331,0.0335,0.0334,0.0343,0.0341,0.0327,0.0356,0.0356,0.0356,0.0356,0,-0.0264,-0.0238,-0.0172,-0.0151,-0.0121,-0.0073,-0.0044,-0.001,0.0033,0.0062,0.0103,0.013,0.0188,0.0222,0.0258,0.0294,0.0306,0.0326,0.0336,0.0323,0.032,0.0339,0.0341,0.0356,0.0356,0.0356,0.0356,0,-0.0295,-0.025,-0.0209,-0.0146,-0.013,-0.0111,-0.0057,-0.0034,0.0002,0.0038,0.005,0.0107,0.0149,0.0197,0.0256,0.028,0.0314,0.0327,0.0297,0.0302,0.0304,0.0303,0.0301,0.0304,0.033,0.033,0.033,0,-0.0301,-0.028,-0.0216,-0.0194,-0.0166,-0.0131,-0.0104,-0.0056,-0.0029,0.0027,0.0044,0.0088,0.0127,0.0192,0.024,0.0285,0.03,0.0296,0.0307,0.0293,0.03,0.0298,0.0301,0.0293,0.0293,0.0292,0.0292,0,-0.0316,-0.0295,-0.0258,-0.0214,-0.0183,-0.0146,-0.0107,-0.0091,-0.0034,-0.0007,0.0036,0.0066,0.0125,0.0169,0.0219,0.0252,0.0281,0.0288,0.0291,0.0279,0.026,0.027,0.0289,0.0288,0.0288,0.0289,0.0289,0.0289,-0.0334,-0.0314,-0.0266,-0.0227,-0.0193,-0.0157,-0.0133,-0.0095,-0.0059,-0.0008,0.0019,0.0061,0.0109,0.018,0.0211,0.0245,0.0255,0.026,0.0262,0.0262,0.0258,0.0254,0.0255,0.0255,0.0255,0.0255,0.0255,0,-0.0347,-0.0314,-0.0279,-0.0226,-0.0195,-0.0172,-0.0127,-0.0103,-0.0066,-0.0024,0.0012,0.0061,0.0104,0.0154,0.02,0.0218,0.0232,0.0228,0.0228,0.0235,0.0247,0.0239,0.0215,0.0215,0.0215,0.0215,0.0215,0.0215,-0.035,-0.0315,-0.0288,-0.0236,-0.0203,-0.0163,-0.014,-0.0106,-0.0073,-0.0021,0.0015,0.0046,0.0092,0.0141,0.0181,0.0195,0.021,0.0202,0.022,0.023,0.0234,0.0237,0.023,0.0205,0.0205,0.0205,0.0205,0.0205]},{"header":{"parameterUnit":"m.s-1","parameterCategory":1,"la1":30.2991,"la2":30.254,"lo1":-89.0895,"lo2":-89.0444,"dy":0.0017,"dx":0.0017,"nx":28,"ny":28,"refTime":"2025-06-03T21:00:00:Z","depth":0,"parameterNumber":3,"parameterNumberName":"V-component_of_WINDS"},"data":[0,0,0,0,0,0,0,0,0,0,0,0,0,0,0,0,0,0,0,0,0,0,0,0,0,0,0,0,0,0,0,0,0,0,0,0,0,0,0,0,0,0,0,0,0,0,0,0,0,0,0,0,0,0,0,0,0,0,3.13,3.13,0,3.1255,3.1254,3.1254,3.1272,3.1273,3.1275,3.1276,3.1223,3.1221,3.1218,0,0,0,0,0,0,0,0,0,0,0,0,0,3.1398,3.1396,3.13,3.13,3.1299,3.1255,3.1254,3.1254,3.1272,3.1274,3.1275,3.1276,3.1224,3.1221,3.1218,0,0,0,0,0,0,0,0,0,0,0,0,0,3.1354,3.1395,3.13,3.1303,3.1303,3.1255,3.1254,3.1253,3.1272,3.1274,3.1275,3.1277,3.1225,3.1221,3.1218,3.1162,0,0,3.1207,3.1205,0,0,0,0,0,0,0,0,3.1356,3.135,3.1303,3.1303,3.1303,3.1271,3.1269,3.1223,3.1271,3.1283,3.1276,3.1278,3.1237,3.1233,3.122,3.116,3.1158,3.1206,3.1204,3.1202,3.1201,0,0,0,0,0,0,0,3.1359,3.1352,3.1282,3.1303,3.1302,3.1305,3.1301,3.1261,3.1251,3.1283,3.1284,3.1279,3.1237,3.1224,3.1219,3.1157,3.1206,3.1203,3.1201,3.1199,3.1048,3.1046,0,0,0,0,0,0,3.1363,3.1355,3.1283,3.1281,3.1334,3.1302,3.1297,3.1279,3.1252,3.125,3.1277,3.128,3.1229,3.1223,3.1217,3.115,3.1203,3.1199,3.1197,3.105,3.1047,3.1045,0,0,0,0,0,0,3.1365,3.1357,3.1285,3.1318,3.1309,3.1299,3.1279,3.1278,3.1264,3.1248,3.1246,3.1265,3.123,3.1223,3.1176,3.1149,3.1197,3.1194,3.1052,3.1049,3.1046,3.1015,0,0,0,0,0,0,3.1368,3.1357,3.1337,3.1318,3.1307,3.1246,3.1277,3.1276,3.1259,3.1261,3.1236,3.1234,3.1231,3.1182,3.1173,3.1145,3.1191,3.1054,3.1051,3.1047,3.1019,3.1012,3.1006,0,0,0,0,0,3.1371,3.1329,3.1336,3.1327,3.1282,3.1245,3.1238,3.1238,3.1256,3.1235,3.1225,3.1235,3.1154,3.1177,3.1167,3.1137,3.1056,3.1052,3.1048,3.1022,3.1013,3.1006,0,0,0,0,0,0,3.1343,3.1327,3.1334,3.1285,3.1266,3.1248,3.1221,3.1229,3.1203,3.1207,3.1205,3.12,3.1151,3.114,3.1166,3.1082,3.1107,3.1101,3.1091,3.1083,3.1077,3.108,3.1188,0,0,0,0,0,3.1332,3.1305,3.1291,3.1248,3.1239,3.1232,3.1215,3.1217,3.1196,3.1188,3.1174,3.1153,3.1122,3.1102,3.1074,3.1018,3.1012,3.0993,3.0986,3.0981,3.0975,3.0944,3.0935,3.1032,3.1032,3.1032,0,0,3.1307,3.1295,3.1277,3.1242,3.1228,3.1198,3.1225,3.1191,3.1168,3.1182,3.1138,3.1127,3.1103,3.1052,3.1028,3.104,3.0947,3.0976,3.0972,3.0968,3.0939,3.093,3.0921,3.1029,3.1029,3.103,0,0,3.1246,3.1235,3.1198,3.1184,3.1163,3.1159,3.115,3.113,3.1124,3.1081,3.109,3.1062,3.101,3.0992,3.0977,3.091,3.0918,3.0901,3.0867,3.0837,3.0829,3.0822,3.0797,3.0788,3.0895,3.0895,3.0895,0,3.1217,3.1174,3.1177,3.1144,3.1127,3.1141,3.1103,3.1088,3.1058,3.1046,3.1061,3.0996,3.0981,3.0925,3.0909,3.0897,3.0885,3.0903,3.083,3.0823,3.0817,3.0793,3.0784,3.0893,3.0893,3.0894,3.0894,0,3.1138,3.1108,3.1081,3.1054,3.1035,3.0999,3.0995,3.0975,3.0979,3.0973,3.0927,3.091,3.0878,3.0865,3.0867,3.0809,3.0817,3.0831,3.0856,3.0806,3.0783,3.0774,3.089,3.0891,3.0892,3.0892,0,0,3.1056,3.1033,3.1023,3.1011,3.099,3.0965,3.093,3.09,3.0883,3.0862,3.0831,3.0787,3.08,3.0782,3.0783,3.0756,3.0704,3.0773,3.0773,3.076,3.0638,3.0626,3.0616,3.0709,3.0708,3.0706,3.0639,0,3.0993,3.0933,3.0935,3.0878,3.0849,3.0863,3.0832,3.0814,3.0807,3.0781,3.0773,3.0742,3.0762,3.0751,3.0726,3.0715,3.0679,3.0721,3.0678,3.0677,3.0683,3.0604,3.0592,3.053,3.0631,3.0629,3.0628,0,3.091,3.0889,3.0829,3.0813,3.0801,3.0773,3.0746,3.0721,3.0701,3.0698,3.0679,3.0684,3.0646,3.0674,3.0621,3.065,3.0633,3.0625,3.0623,3.0617,3.0648,3.0595,3.051,3.05,3.0615,3.0616,3.0617,0,3.0855,3.0811,3.077,3.0759,3.0739,3.0719,3.0709,3.0691,3.0673,3.065,3.0638,3.061,3.0593,3.0571,3.0567,3.0588,3.0513,3.0541,3.0508,3.0508,3.049,3.0491,3.0399,3.0482,3.0482,3.0482,3.0482,0,3.0782,3.0745,3.0745,3.0719,3.0677,3.0681,3.0639,3.063,3.0615,3.0586,3.0596,3.0569,3.0567,3.0538,3.0535,3.0491,3.0484,3.0479,3.0478,3.0477,3.0478,3.0465,3.0469,3.048,3.048,3.0481,3.0481,0,3.0713,3.0711,3.0667,3.0652,3.0648,3.0618,3.0604,3.0579,3.0574,3.0538,3.053,3.0521,3.0489,3.0484,3.0445,3.0443,3.0389,3.0394,3.0397,3.0397,3.0363,3.0366,3.0259,3.0244,3.0338,3.0337,3.0336,0,3.0666,3.0638,3.0621,3.0604,3.0594,3.0566,3.0548,3.055,3.0531,3.0507,3.0485,3.0453,3.0428,3.0375,3.0364,3.0334,3.0337,3.0302,3.0332,3.0332,3.0335,3.0336,3.0333,3.0295,3.0294,3.0293,3.0293,0,3.0582,3.0584,3.0559,3.0535,3.0515,3.0495,3.0476,3.0461,3.046,3.0438,3.0406,3.0387,3.0349,3.0317,3.0287,3.0275,3.0283,3.0284,3.0274,3.0272,3.0274,3.0271,3.0379,3.0285,3.0286,3.0287,3.0287,3.0287,3.0522,3.0498,3.0482,3.0455,3.0442,3.0424,3.04,3.0393,3.0367,3.0337,3.0339,3.0304,3.0284,3.0246,3.0232,3.0203,3.0214,3.0201,3.0197,3.0193,3.019,3.028,3.0198,3.0198,3.0198,3.0198,3.0198,0,3.0438,3.0429,3.0404,3.0379,3.0357,3.037,3.035,3.033,3.0299,3.0281,3.0257,3.022,3.019,3.0177,3.0147,3.0126,3.0129,3.0118,3.0118,3.0115,3.0182,3.0193,3.0116,3.0116,3.0116,3.0116,3.0116,3.0116,3.0392,3.0351,3.035,3.0303,3.0294,3.0261,3.0248,3.0232,3.0218,3.0176,3.0152,3.0145,3.0129,3.0098,3.007,3.0067,3.0055,3.0042,3.004,3.0102,3.0111,3.0118,3.0128,3.004,3.004,2.9976,2.9976,2.9975]}]]